TimeMDT,TemperatureF,Dew PointF,Humidity,Sea Level PressureIn,VisibilityMPH,Wind Direction,Wind SpeedMPH,Gust SpeedMPH,PrecipitationIn,Events,Conditions,WindDirDegrees,DateUTC
12:53 AM,26.1,14.0,60,30.17,10.0,Calm,Calm,-,N/A,,Overcast,0,2013-04-18 06:53:00
1:53 AM,23.0,16.0,74,30.18,10.0,ESE,5.8,-,N/A,,Mostly Cloudy,120,2013-04-18 07:53:00
2:53 AM,21.9,14.0,72,30.18,10.0,SE,5.8,-,N/A,,Overcast,140,2013-04-18 08:53:00
3:53 AM,21.9,15.1,75,30.17,10.0,Calm,Calm,-,N/A,,Partly Cloudy,0,2013-04-18 09:53:00
4:53 AM,19.9,15.1,81,30.18,10.0,SSE,4.6,-,N/A,,Partly Cloudy,150,2013-04-18 10:53:00
5:53 AM,19.0,12.0,74,30.19,10.0,SE,5.8,-,N/A,,Partly Cloudy,140,2013-04-18 11:53:00
6:53 AM,19.0,12.0,74,30.21,10.0,SE,5.8,-,N/A,,Overcast,140,2013-04-18 12:53:00
7:53 AM,19.9,12.9,74,30.23,10.0,SE,4.6,-,N/A,,Clear,130,2013-04-18 13:53:00
8:53 AM,24.1,14.0,65,30.24,10.0,Calm,Calm,-,N/A,,Partly Cloudy,0,2013-04-18 14:53:00
9:53 AM,26.1,14.0,60,30.25,10.0,NNW,6.9,-,N/A,,Scattered Clouds,330,2013-04-18 15:53:00
10:53 AM,28.0,15.1,58,30.26,10.0,WNW,11.5,-,N/A,,Mostly Cloudy,300,2013-04-18 16:53:00
11:53 AM,30.0,16.0,56,30.26,10.0,North,6.9,-,N/A,,Scattered Clouds,360,2013-04-18 17:53:00
12:53 PM,32.0,17.1,54,30.24,10.0,WNW,10.4,-,N/A,,Mostly Cloudy,300,2013-04-18 18:53:00
1:53 PM,35.1,17.1,48,30.24,10.0,NW,11.5,23.0,N/A,,Scattered Clouds,310,2013-04-18 19:53:00
2:53 PM,37.0,16.0,42,30.23,10.0,WNW,18.4,28.8,N/A,,Scattered Clouds,290,2013-04-18 20:53:00
3:53 PM,37.9,16.0,41,30.24,10.0,NW,21.9,27.6,N/A,,Mostly Cloudy,310,2013-04-18 21:53:00
4:53 PM,37.0,12.0,36,30.26,10.0,WNW,11.5,20.7,N/A,,Scattered Clouds,290,2013-04-18 22:53:00
5:53 PM,37.9,15.1,39,30.28,10.0,WNW,13.8,24.2,N/A,,Overcast,300,2013-04-18 23:53:00
6:53 PM,37.0,14.0,39,30.31,10.0,NW,12.7,-,N/A,,Partly Cloudy,310,2013-04-19 00:53:00
7:53 PM,34.0,15.1,46,30.33,10.0,WNW,6.9,-,N/A,,Clear,300,2013-04-19 01:53:00
8:53 PM,30.9,19.9,64,30.34,10.0,Calm,Calm,-,N/A,,Clear,0,2013-04-19 02:53:00
9:53 PM,30.9,19.9,64,30.36,10.0,SSE,10.4,-,N/A,,Clear,160,2013-04-19 03:53:00
10:53 PM,28.9,18.0,64,30.36,10.0,SSE,9.2,-,N/A,,Clear,150,2013-04-19 04:53:00
11:53 PM,28.0,16.0,61,30.36,10.0,SSE,10.4,-,N/A,,Clear,150,2013-04-19 05:53:00